Regional Weather Roundup
Issued by NWS

Home | Current Version | Previous Version | Text Only | Print | Product List | Glossary On
Versions: 1 2 3 4 5 6 7 8 9 10 11 12 13 14 15 16 17 18 19 20 21 22 23 24 25 26 27 28 29 30 31 32 33 34 35 36 37 38 39 40 41 42 43 44 45 46 47 48 49 50
000
ASUS43 KDTX 040801
RWRMI
MICHIGAN HOURLY REGIONAL WEATHER ROUNDUP
NATIONAL WEATHER SERVICE DETROIT/PONTIAC MI
400 AM EDT WED MAY 04 2016

NOTE: "FAIR" INDICATES FEW OR NO CLOUDS BELOW 12,000 FEET WITH NO
SIGNIFICANT WEATHER AND/OR OBSTRUCTION TO VISIBILITY.

MIZ047>049-052>055-059>063-066>070-074>076-081>083-040900-
SOUTHEAST LOWER MICHIGAN

CITY           SKY/WX    TMP DP  RH WIND       PRES   REMARKS
ADRIAN         CLOUDY    51  44  77 SW9       29.66F
ALMA           PTCLDY    50  39  64 SW9       29.60F
ANN ARBOR      CLOUDY    48  43  82 S5        29.66F
BAD AXE        MOCLDY    47  43  84 S5        29.62F
CARO           CLOUDY    54  38  55 S8        29.61F
DETROIT CITY   MOCLDY    52  41  66 SW9       29.67F
DETROIT        CLOUDY    50  43  77 S5        29.67F
FLINT          CLOUDY    53  43  68 S7        29.64F
GROSSE ILE     CLOUDY    52  46  82 S6        29.67F
HILLSDALE      CLOUDY    53  38  57 S7        29.65F
HOWELL         CLOUDY    52  41  64 S5        29.64F

CITY           SKY/WX    TMP DP  RH WIND       PRES   REMARKS
JACKSON        LGT RAIN  52  44  74 S5        29.64F
LAMBERTVILLE   CLOUDY    52  45  78 S7        29.68F
LANSING        CLOUDY    53  41  63 S12       29.61F
LAPEER         CLOUDY    51  41  66 SW6       29.64F
MASON          CLOUDY    52  42  68 S5        29.62F
MONROE         CLOUDY    49  45  87 S6        29.67F
MT. CLEMENS    PTCLDY    46  45  93 S8        29.65F
PONTIAC        CLOUDY    50  42  74 VRB6      29.64F
PORT HOPE        N/A     49  42  77 CALM      29.61F
PORT HURON     CLOUDY    45  43  93 CALM      29.66F
TRI CITIES     CLOUDY    54  38  54 S7        29.61F
MIDLAND        FAIR      47  40  77 CALM      29.59F
TROY           MOCLDY    51  42  70 S7        29.67F
SAGINAW HB     CLOUDY    54  37  54 S7        29.61S
$$
MIZ043>046-050>051-056>058-064>065-071>073-077>080-040900-
SOUTHWEST LOWER MICHIGAN

CITY           SKY/WX    TMP DP  RH WIND       PRES   REMARKS
BATTLE CREEK   CLOUDY    51  44  77 S12       29.62F
BENTON HARBOR  CLOUDY    56  41  57 SW17G28   29.61F
BIG RAPIDS     RAIN      47  44  88 W3        29.59F
COLDWATER      CLOUDY    53  43  70 SW6       29.64F
FREMONT        LGT RAIN  48  48 100 NW5       29.60S
HOLLAND        CLOUDY    51  43  74 SW10      29.60F
GRAND RAPIDS   CLOUDY    55  42  61 S8        29.58F
IONIA          CLOUDY    52  41  65 S6        29.58F
KALAMAZOO      CLOUDY    52  43  71 S6        29.62F
LUDINGTON      RAIN      44  43  97 N10G18    29.63F
MARSHALL       CLOUDY    50  45  81 CALM      29.62F
MOUNT PLEASANT   N/A     47  40  78 CALM      29.58F
MUSKEGON       LGT RAIN  49  44  83 NW6       29.60F
$$
MIZ016>042-040900-
NORTHERN LOWER MICHIGAN

CITY           SKY/WX    TMP DP  RH WIND       PRES   REMARKS
ALPENA         CLOUDY    46  43  89 CALM      29.62F
BEAVER ISLAND  LGT RAIN  41  40  97 NW7       29.65S
BELLAIRE       LGT RAIN  46  44  93 CALM      29.63S
CADILLAC       LGT RAIN  46  45  96 NW3       29.58F
CHARLEVOIX     DRIZZLE   41  41 100 N9        29.65F
FRANKFORT      CLOUDY    42  40  92 N10       29.65S
GAYLORD        LGT RAIN  47  44  90 CALM      29.60F
HARBOR SPRINGS FOG       43  43  99 CALM      29.62F VSB 3/4
HOUGHTON LAKE  LGT RAIN  50  43  77 W8        29.60F
MANISTEE       CLOUDY    45  39  81 NW9       29.64S
OSCODA         CLOUDY    45  40  84 NE3       29.62S
PELLSTON       CLOUDY    47  44  90 NW3       29.62F
ROGERS CITY    LGT RAIN  46  44  93 CALM      29.63F
TRAVERSE CITY  LGT RAIN  45  42  89 N7        29.63R
$$
MIZ007>008-015-040900-
EASTERN UPPER MICHIGAN

CITY           SKY/WX    TMP DP  RH WIND       PRES   REMARKS
KINROSS          N/A     41  41 100 N7        29.63F
MACKINAC ISLAN FOG       45  45 100 N9        29.62F VSB 1
NEWBERRY       CLOUDY    40  39  97 N6        29.65F
S. S. MARIE    FOG       42  41  96 NW3       29.63S VSB 1
MUNISING         N/A     40  37  89 NW13      29.71S WCI  32
$$
MIZ004>006-011>014-085-040900-
CENTRAL UPPER MICHIGAN

CITY           SKY/WX    TMP DP  RH WIND       PRES   REMARKS
MANISTIQUE     CLOUDY    40  39  95 N15       29.66F WCI  32
ESCANABA       PTCLDY    41  36  81 N10G18    29.71S
MENOMINEE        N/A     41  36  82 N8        29.73S
SAWYER-GWINN   CLOUDY    39  35  85 N14       29.72S WCI  31
$$
MIZ001>003-009>011-084-040900-
WESTERN UPPER MICHIGAN

CITY           SKY/WX    TMP DP  RH WIND       PRES   REMARKS
IRON MOUNTAIN  CLOUDY    41  35  79 NW9       29.73S
HOUGHTON       LGT RAIN  39  34  82 N13       29.80R WCI  31
COPPER HARBOR    N/A     39  35  86 NE17G23   29.79R WCI  30
IRONWOOD         N/A     45  34  65 N10       29.81S
$$

ABBREVIATIONS USED IN REMARKS
   TC - TEMPERATURE IN CELSIUS
  WCI - WIND CHILL INDEX
   HX - HEAT INDEX
  VSB - VISIBILITY





USA.gov is the U.S. government's official web portal to all federal, state and local government web resources and services.